Weather History for KHKA - June, 2014

Change the Weather History Date:

Saturday, June 7, 2014

  Actual Average Record
Temperature  
Mean Temperature 77 °F -  
Max Temperature 89 °F 86 °F 100 °F (1933)
Min Temperature 66 °F 65 °F 50 °F (1944)
Cooling Degree Days 12    
Growing Degree Days 27 (Base 50)    
Moisture  
Dew Point 68 °F    
Average Humidity 86    
Maximum Humidity 100    
Minimum Humidity 61    
Precipitation  
Precipitation 0.06 in - - ()
Sea Level Pressure  
Sea Level Pressure 29.89 in    
Wind  
Wind Speed 7 mph (SSW)    
Max Wind Speed 25 mph    
Max Gust Speed 36 mph    
Visibility 8 miles    
Events Fog , Rain , Thunderstorm    
Averages and records for this station are not official NWS values.
T = Trace of Precipitation, MM = Missing Value Source: NWS Daily Summary

Daily Weather History Graph

Daily Weather History Graph

Search for Another Location

Airport or City:

Trip Planner

Search our weather history database for the weather conditions in past years. The results will help you decide how hot, cold, wet, or windy it might be!

Date:

Astronomy

Jun. 07, 2014 Rise Set
Actual Time 5:42 AM CDT 8:14 PM CDT
Civil Twilight 5:12 AM CDT 8:44 PM CDT
Nautical Twilight 4:35 AM CDT 9:21 PM CDT
Astronomical Twilight 3:54 AM CDT 10:02 PM CDT
Moon 2:41 PM CDT (6/7) 1:53 AM CDT (6/7)
Length of Visible Light 15h 31m
Length of Day
14h 31m
Waxing Gibbous, 68% of the Moon is Illuminated
Jun 7
Waxing Gibbous
Jun 12
Full
Jun 19
Last Quarter
Jun 27
New
Jul 5
First Quarter

Hourly Weather History & Observations

Time (CDT) Temp. Heat Index Dew Point Humidity Pressure Visibility Wind Dir Wind Speed Gust Speed Precip Events Conditions
12:53 AM 68.0 °F - 66.9 °F 96% 29.94 in 10.0 mi SW 3.5 mph - N/A   Clear
1:53 AM 66.9 °F - 66.9 °F 100% 29.94 in 10.0 mi Calm Calm - N/A   Clear
2:53 AM 66.0 °F - 66.0 °F 100% 29.95 in 10.0 mi SE 4.6 mph - N/A   Clear
3:53 AM 66.0 °F - 64.9 °F 96% 29.96 in 4.0 mi ESE 3.5 mph - N/A   Clear
4:53 AM 66.0 °F - 66.0 °F 100% 29.95 in 7.0 mi South 4.6 mph - N/A   Clear
5:10 AM 66.9 °F - 66.0 °F 97% 29.96 in 2.5 mi South 5.8 mph - N/A   Scattered Clouds
5:13 AM 66.9 °F - 66.9 °F 100% 29.96 in 1.0 mi South 5.8 mph - N/A   Mist
5:20 AM 66.9 °F - 66.9 °F 100% 29.96 in 0.5 mi South 4.6 mph - N/A Fog Fog
5:53 AM 68.0 °F - 68.0 °F 100% 29.95 in 0.5 mi SSE 5.8 mph - N/A Fog Fog
6:12 AM 68.0 °F - 68.0 °F 100% 29.95 in 2.0 mi SSE 4.6 mph - N/A   Overcast
6:19 AM 68.0 °F - 68.0 °F 100% 29.96 in 2.0 mi SSE 5.8 mph - N/A   Overcast
9:50 AM 73.4 °F - 69.8 °F 88% 29.93 in 10.0 mi SSE 9.2 mph - N/A   Scattered Clouds
9:53 AM 73.9 °F - 69.1 °F 85% 29.92 in 10.0 mi SE 10.4 mph - N/A   Scattered Clouds
10:53 AM 78.1 °F - 71.1 °F 79% 29.93 in 10.0 mi South 9.2 mph - N/A   Scattered Clouds
11:38 AM 80.1 °F 84.2 °F 73.0 °F 79% 29.93 in 10.0 mi SSW 8.1 mph - N/A   Mostly Cloudy
11:53 AM 80.1 °F 84.2 °F 73.0 °F 79% 29.92 in 10.0 mi SSW 10.4 mph - N/A   Mostly Cloudy
12:53 PM 82.0 °F 87.9 °F 73.9 °F 76% 29.91 in 10.0 mi South 8.1 mph - N/A   Mostly Cloudy
1:53 PM 84.9 °F 93.3 °F 75.0 °F 72% 29.87 in 10.0 mi SW 11.5 mph - N/A   Mostly Cloudy
2:53 PM 87.1 °F 96.3 °F 75.0 °F 67% 29.83 in 10.0 mi SW 12.7 mph - N/A   Scattered Clouds
3:53 PM 88.0 °F 97.5 °F 75.0 °F 65% 29.81 in 10.0 mi SSW 17.3 mph - N/A   Scattered Clouds
4:53 PM 87.1 °F 93.6 °F 72.0 °F 61% 29.81 in 10.0 mi WSW 13.8 mph 20.7 mph N/A   Mostly Cloudy
5:33 PM 75.0 °F - 64.9 °F 71% 29.83 in 8.0 mi West 25.3 mph 35.7 mph 0.00 in Rain , Thunderstorm Light Rain
5:46 PM 71.1 °F - 62.1 °F 73% 29.84 in 1.8 mi WSW 16.1 mph 33.4 mph 0.04 in Rain , Thunderstorm Rain
5:53 PM 69.1 °F - 63.0 °F 81% 29.82 in 1.8 mi WSW 17.3 mph 29.9 mph 0.05 in Rain , Thunderstorm Light Rain
6:01 PM 69.1 °F - 64.0 °F 84% 29.80 in 10.0 mi WSW 11.5 mph 25.3 mph 0.00 in Rain , Thunderstorm Light Rain
6:25 PM 70.0 °F - 64.0 °F 81% 29.80 in 10.0 mi WSW 17.3 mph 26.5 mph 0.01 in Rain Light Rain
6:53 PM 70.0 °F - 64.9 °F 84% 29.80 in 10.0 mi WSW 12.7 mph 21.9 mph 0.01 in   Clear
7:53 PM 73.0 °F - 68.0 °F 84% 29.84 in 10.0 mi Calm Calm - N/A   Mostly Cloudy
8:53 PM 73.0 °F - 68.0 °F 84% 29.85 in 10.0 mi South 5.8 mph - N/A   Mostly Cloudy
9:53 PM 72.0 °F - 69.1 °F 91% 29.85 in 10.0 mi South 5.8 mph - N/A   Mostly Cloudy
10:53 PM 72.0 °F - 69.1 °F 91% 29.85 in 10.0 mi SSW 6.9 mph - N/A   Clear
11:53 PM 71.1 °F - 69.1 °F 93% 29.87 in 10.0 mi SSW 6.9 mph - N/A   Clear